User: anonymous   Login
Location: Cutler
(25.6150°N, 80.3110°W)
Time: 21:02:28
(UTC-05:00)
Language:

N. Korean satellite - Orbit

View from above orbital plane
View from above orbital plane
View from above satellite
View from above satellite

Ground track
Ground track

The orbit data is extracted from the following two-line orbital elements,

1 39026U 12072A   18050.56101252 +.00001688 +00000-0 +66186-4 0  9992
2 39026 097.2146 064.9329 0040287 022.9054 337.3971 15.26372883287653
Epoch (UTC): 19 February 2018 13:27:51
Eccentricity: 0.0040287
inclination: 97.2146°
perigee height: 459 km
apogee height: 514 km
right ascension of ascending node: 64.9329°
argument of perigee: 22.9054°
revolutions per day: 15.26372883
mean anomaly at epoch: 337.3971°
orbit number at epoch: 28765

The dashed part of the orbit path shows where the satellite is in the earth's shadow,  

DLR